ALZ2031 GCTS-LPMA

Flight info

Callsign ALZ2031
Flight time N/A
Altitude 34000
Route BIMBO DCT EKNOT
Aircraft B738/M-SDE2E3FGHIRWXY/LB1

Departure

Time 2026-04-30 12:41
Airport Tenerife Sur Airport (GCTS)

Arrival

Time N/A
Airport Cristiano Ronaldo International Airport (LPMA)
Time Latitude Longitude Altitude Speed Heading
2026-04-30 12:20 28.04509 -16.57802 248 ft 0 kts 340°
2026-04-30 12:34 28.04510 -16.57802 247 ft 1 kts 340°
2026-04-30 12:34 28.04529 -16.57810 247 ft 4 kts 339°
2026-04-30 12:34 28.04558 -16.57827 247 ft 4 kts 288°
2026-04-30 12:35 28.04551 -16.57880 247 ft 10 kts 254°
2026-04-30 12:35 28.04511 -16.57924 247 ft 7 kts 177°
2026-04-30 12:35 28.04464 -16.57911 247 ft 6 kts 160°
2026-04-30 12:35 28.04432 -16.57898 247 ft 4 kts 166°
2026-04-30 12:36 28.04394 -16.57932 246 ft 11 kts 242°
2026-04-30 12:36 28.04354 -16.58037 246 ft 15 kts 249°
2026-04-30 12:36 28.04325 -16.58132 246 ft 12 kts 252°
2026-04-30 12:36 28.04307 -16.58193 246 ft 8 kts 249°
2026-04-30 12:37 28.04289 -16.58247 246 ft 4 kts 248°
2026-04-30 12:37 28.04283 -16.58266 246 ft 3 kts 249°
2026-04-30 12:37 28.04272 -16.58297 246 ft 8 kts 249°
2026-04-30 12:37 28.04245 -16.58379 246 ft 10 kts 250°
2026-04-30 12:38 28.04217 -16.58460 245 ft 13 kts 248°
2026-04-30 12:38 28.04185 -16.58550 245 ft 13 kts 248°
2026-04-30 12:38 28.04153 -16.58641 245 ft 16 kts 248°
2026-04-30 12:38 28.04108 -16.58770 245 ft 19 kts 249°
2026-04-30 12:39 28.04043 -16.58873 244 ft 15 kts 191°
2026-04-30 12:39 28.03981 -16.58845 244 ft 12 kts 120°
2026-04-30 12:39 28.03964 -16.58800 244 ft 9 kts 111°
2026-04-30 12:39 28.03940 -16.58731 244 ft 4 kts 87°
2026-04-30 12:40 28.03941 -16.58726 244 ft 1 kts 76°
2026-04-30 12:40 28.03990 -16.58560 244 ft 59 kts 70°
2026-04-30 12:40 28.04211 -16.57923 246 ft 129 kts 67°
2026-04-30 12:40 28.04607 -16.56782 469 ft 171 kts 72°
2026-04-30 12:41 28.04938 -16.55889 1273 ft 163 kts 61°
2026-04-30 12:41 28.05577 -16.54629 1849 ft 165 kts 68°
2026-04-30 12:41 28.05966 -16.53514 2080 ft 180 kts 71°
2026-04-30 12:41 28.06441 -16.52094 2397 ft 196 kts 70°
2026-04-30 12:42 28.06833 -16.50903 2526 ft 215 kts 70°
2026-04-30 12:42 28.07247 -16.49638 2703 ft 231 kts 70°
2026-04-30 12:42 28.07861 -16.47751 3217 ft 243 kts 70°
2026-04-30 12:42 28.08473 -16.45849 3853 ft 260 kts 70°
2026-04-30 12:43 28.09066 -16.43966 4690 ft 267 kts 70°
2026-04-30 12:43 28.09673 -16.42029 5638 ft 270 kts 70°
2026-04-30 12:43 28.10262 -16.40184 6422 ft 276 kts 69°
2026-04-30 12:43 28.10948 -16.38071 7306 ft 283 kts 69°
2026-04-30 12:44 28.11631 -16.35953 8122 ft 289 kts 69°
2026-04-30 12:44 28.12338 -16.33771 8903 ft 297 kts 69°
2026-04-30 12:44 28.13082 -16.31530 9663 ft 303 kts 68°
2026-04-30 12:44 28.13834 -16.29284 10427 ft 310 kts 68°
2026-04-30 12:45 28.14577 -16.27064 10691 ft 332 kts 68°
2026-04-30 12:45 28.15443 -16.24447 10929 ft 353 kts 68°
2026-04-30 12:45 28.16308 -16.21748 10898 ft 356 kts 69°
2026-04-30 12:45 28.17140 -16.19072 10916 ft 354 kts 69°
2026-04-30 12:46 28.17921 -16.16579 10906 ft 354 kts 69°
2026-04-30 12:46 28.18748 -16.13953 10906 ft 354 kts 69°